Time,TemperatureF,DewpointF,PressureIn,WindDirection,WindDirectionDegrees,WindSpeedMPH,WindSpeedGustMPH,Humidity,HourlyPrecipIn,Conditions,Clouds,dailyrainin,SolarRadiationWatts/m^2,SoftwareType,DateUTC
2013-09-15 00:02:00,89.0,50.0,-100.00,NE,39,1.0,3.0,26,0.00,,,-99.99,0.000000,,2013-09-15 07:02:00,
2013-09-15 00:42:00,87.0,50.0,-100.00,NE,54,0.0,2.0,28,0.00,,,0.00,0.000000,,2013-09-15 07:42:00,
2013-09-15 00:52:00,87.0,50.0,-100.00,NE,54,0.0,2.0,28,0.00,,,0.00,0.000000,,2013-09-15 07:52:00,
2013-09-15 01:02:00,87.0,50.0,-100.00,NE,54,0.0,2.0,28,0.00,,,0.00,0.000000,,2013-09-15 08:02:00,
2013-09-15 02:44:00,84.0,51.0,-100.00,SSE,152,0.0,4.0,32,0.00,,,0.00,0.000000,,2013-09-15 09:44:00,
2013-09-15 02:53:00,84.0,51.0,-100.00,SSE,152,0.0,4.0,32,0.00,,,0.00,0.000000,,2013-09-15 09:53:00,
2013-09-15 03:03:00,84.0,51.0,-100.00,SSE,152,0.0,4.0,32,0.00,,,0.00,0.000000,,2013-09-15 10:03:00,
2013-09-15 03:43:00,84.0,51.0,-100.00,ESE,110,1.0,4.0,32,0.00,,,0.00,0.000000,,2013-09-15 10:43:00,
2013-09-15 03:53:00,84.0,51.0,-100.00,ESE,110,1.0,4.0,32,0.00,,,0.00,0.000000,,2013-09-15 10:53:00,
2013-09-15 04:02:00,84.0,51.0,-100.00,ESE,110,1.0,4.0,32,0.00,,,0.00,0.000000,,2013-09-15 11:02:00,
2013-09-15 04:42:00,83.0,52.0,-100.00,ESE,108,1.0,3.0,35,0.00,,,0.00,0.000000,,2013-09-15 11:42:00,
2013-09-15 04:52:00,83.0,52.0,-100.00,ESE,108,1.0,3.0,35,0.00,,,0.00,0.000000,,2013-09-15 11:52:00,
2013-09-15 05:02:00,83.0,52.0,-100.00,ESE,108,1.0,3.0,35,0.00,,,0.00,0.000000,,2013-09-15 12:02:00,
2013-09-15 05:42:00,81.0,51.0,-100.00,NNE,17,1.0,8.0,35,0.00,,,0.00,0.000000,,2013-09-15 12:42:00,
2013-09-15 05:52:00,81.0,51.0,-100.00,NNE,17,1.0,8.0,35,0.00,,,0.00,0.000000,,2013-09-15 12:52:00,
2013-09-15 06:01:00,81.0,51.0,-100.00,NNE,17,1.0,8.0,35,0.00,,,0.00,0.000000,,2013-09-15 13:01:00,
2013-09-15 06:42:00,79.0,54.0,-100.00,ENE,72,0.0,2.0,42,0.00,,,0.00,0.000000,,2013-09-15 13:42:00,
2013-09-15 06:53:00,79.0,54.0,-100.00,ENE,72,0.0,2.0,42,0.00,,,0.00,0.000000,,2013-09-15 13:53:00,
2013-09-15 07:02:00,79.0,54.0,-100.00,ENE,72,0.0,2.0,42,0.00,,,0.00,0.000000,,2013-09-15 14:02:00,
2013-09-15 12:42:00,108.0,44.0,-100.00,East,101,4.0,11.0,12,0.00,,,0.00,186.000000,,2013-09-15 19:42:00,
2013-09-15 12:52:00,108.0,44.0,-100.00,East,101,4.0,11.0,12,0.00,,,0.00,186.000000,,2013-09-15 19:52:00,
2013-09-15 13:02:00,108.0,44.0,-100.00,East,101,4.0,11.0,12,0.00,,,0.00,186.000000,,2013-09-15 20:02:00,
2013-09-15 13:42:00,109.0,43.0,-100.00,SE,134,3.0,9.0,11,0.00,,,0.00,760.000000,,2013-09-15 20:42:00,
2013-09-15 13:53:00,109.0,43.0,-100.00,SE,134,3.0,9.0,11,0.00,,,0.00,760.000000,,2013-09-15 20:53:00,
2013-09-15 14:02:00,109.0,43.0,-100.00,SE,134,3.0,9.0,11,0.00,,,0.00,760.000000,,2013-09-15 21:02:00,
2013-09-15 14:44:00,113.0,41.0,-100.00,NE,54,2.0,10.0,9,0.00,,,0.00,1115.000000,,2013-09-15 21:44:00,
2013-09-15 14:54:00,113.0,41.0,-100.00,NE,54,2.0,10.0,9,0.00,,,0.00,1115.000000,,2013-09-15 21:54:00,
2013-09-15 15:04:00,113.0,41.0,-100.00,NE,54,2.0,10.0,9,0.00,,,0.00,1115.000000,,2013-09-15 22:04:00,
2013-09-15 15:44:00,113.0,41.0,-100.00,ESE,122,3.0,13.0,9,0.00,,,0.00,1069.000000,,2013-09-15 22:44:00,
2013-09-15 15:53:00,113.0,41.0,-100.00,ESE,122,3.0,13.0,9,0.00,,,0.00,1069.000000,,2013-09-15 22:53:00,
2013-09-15 16:02:00,113.0,41.0,-100.00,ESE,122,3.0,13.0,9,0.00,,,0.00,1069.000000,,2013-09-15 23:02:00,
2013-09-15 17:42:00,109.0,38.0,-100.00,SW,230,7.0,11.0,9,0.00,,,0.00,746.000000,,2013-09-16 00:42:00,
2013-09-15 17:52:00,109.0,38.0,-100.00,SW,230,7.0,11.0,9,0.00,,,0.00,746.000000,,2013-09-16 00:52:00,
2013-09-15 18:02:00,109.0,38.0,-100.00,SW,230,7.0,11.0,9,0.00,,,0.00,746.000000,,2013-09-16 01:02:00,
2013-09-15 18:42:00,109.0,38.0,-100.00,WSW,248,3.0,11.0,9,0.00,,,-99.99,500.000000,,2013-09-16 01:42:00,
2013-09-15 18:52:00,109.0,38.0,-100.00,WSW,248,3.0,11.0,9,0.00,,,-99.99,500.000000,,2013-09-16 01:52:00,
2013-09-15 19:02:00,109.0,38.0,-100.00,WSW,248,3.0,11.0,9,0.00,,,-99.99,500.000000,,2013-09-16 02:02:00,
2013-09-15 20:45:00,101.0,39.0,-100.00,SSW,212,4.0,9.0,12,0.00,,,0.00,19.000000,,2013-09-16 03:45:00,
2013-09-15 21:43:00,98.0,42.0,-100.00,WSW,237,3.0,5.0,15,0.00,,,0.00,0.000000,,2013-09-16 04:43:00,
2013-09-15 21:54:00,98.0,42.0,-100.00,WSW,237,3.0,5.0,15,0.00,,,0.00,0.000000,,2013-09-16 04:54:00,
2013-09-15 22:03:00,98.0,42.0,-100.00,WSW,237,3.0,5.0,15,0.00,,,0.00,0.000000,,2013-09-16 05:03:00,
2013-09-15 22:44:00,94.0,43.0,-100.00,WSW,241,1.0,3.0,17,0.00,,,0.00,0.000000,,2013-09-16 05:44:00,
2013-09-15 22:53:00,94.0,43.0,-100.00,WSW,241,1.0,3.0,17,0.00,,,0.00,0.000000,,2013-09-16 05:53:00,
2013-09-15 23:02:00,94.0,43.0,-100.00,WSW,241,1.0,3.0,17,0.00,,,0.00,0.000000,,2013-09-16 06:02:00,
2013-09-15 23:52:00,91.0,43.0,-100.00,ENE,66,2.0,6.0,19,0.00,,,0.00,0.000000,,2013-09-16 06:52:00,